Location: Bothell
(47.7630°N, 122.2040°W)
Time: 10:11:17
(UTC-08:00)

Amateur Radio Satellites - All Passes

Search period start: 28 January 2015 09:41
Search period end: 29 January 2015 09:41
Location: Bothell, 47.7630°N, 122.2040°W

Satellite Date Start Highest point End Downlink Frequencies (MHz)
Time Altitude Azimuth
POPSAT HIP 1 28 Jan 09:41:50 09:45:53 43° 70° (ENE) 09:50:00 437.405
PHONESAT 2.4 28 Jan 09:43:09 09:44:48 13° 157° (SSE) 09:46:32 2401.200-2431.200
DUCHIFAT 1 28 Jan 09:45:05 09:49:09 46° 71° (ENE) 09:53:18 145.980
ANTELSAT 28 Jan 09:48:01 09:52:45 81° 75° (ENE) 09:57:28 437.575/2403.000
SO-50 28 Jan 09:51:06 09:54:05 18° 112° (ESE) 09:57:16 436.795
TIGRISAT 28 Jan 09:56:24 10:01:09 86° 261° (W) 10:05:53 435.000
UKube-1 28 Jan 09:59:14 10:03:26 44° 99° (E) 10:07:37 .
SEEDS 28 Jan 09:59:16 10:03:13 39° 290° (WNW) 10:07:06 437.485
CUBEBUG 2 28 Jan 09:59:42 10:04:18 59° 99° (E) 10:08:44 437.445
BRITE-PL 28 Jan 10:05:16 10:10:21 33° 295° (WNW) 10:15:14 437.365/2234.400
GOMX 1 28 Jan 10:05:53 10:11:01 40° 293° (WNW) 10:15:55 467.674
50 SAT 28 Jan 10:09:17 10:12:26 22° 92° (E) 10:15:37 437.505
ZACube-1 28 Jan 10:11:53 10:16:18 55° 100° (E) 10:20:36 437.345
AIST 2 28 Jan 10:14:56 10:18:17 22° 34° (NE) 10:21:38 435.215
CINEMA 3 28 Jan 10:17:27 10:22:20 61° 288° (WNW) 10:26:59 145.822/145.860
DX 1 28 Jan 10:18:41 10:23:07 73° 104° (ESE) 10:27:31 434.975-435.025
NANOSAT C BR1 28 Jan 10:19:13 10:23:30 80° 256° (WSW) 10:27:50 145.865
HUMSAT D 28 Jan 10:23:00 10:27:02 40° 97° (E) 10:31:00 437.325/437.525
DOVE 4 28 Jan 10:23:07 10:27:57 37° 293° (WNW) 10:32:34 437.250
FUNcube-1 28 Jan 10:24:10 10:28:40 72° 102° (ESE) 10:33:01 145.935
BEESAT 2 28 Jan 10:24:20 10:28:20 41° 44° (NE) 10:32:17 435.950
VERMONT LUNAR 28 Jan 10:26:58 10:29:44 22° 170° (S) 10:32:30 437.305
COMPASS 1 28 Jan 10:27:42 10:31:10 25° 294° (WNW) 10:34:32 437.405
QB50P2 28 Jan 10:33:03 10:37:17 57° 260° (W) 10:41:34 145.880/145.840
AISAT 28 Jan 10:38:23 10:42:46 47° 99° (E) 10:47:08 437.250
ESTCUBE 1 28 Jan 10:38:27 10:42:01 23° 92° (E) 10:45:39 437.505/2401.250
BEESAT 3 28 Jan 10:39:28 10:43:37 59° 48° (NE) 10:47:42 437.485
CANX-2 28 Jan 10:39:51 10:42:16 15° 299° (WNW) 10:44:31 2200.000
UWE-3 28 Jan 10:42:00 10:46:33 64° 287° (WNW) 10:50:55 435.000/436.395/437.385
QB50P1 28 Jan 10:42:54 10:47:02 45° 261° (W) 10:51:11 145.935-145.965
RS-15 28 Jan 10:43:53 10:53:44 35° 12° (NNE) 11:03:58 29.354- 29.394
UNISAT 6 28 Jan 10:49:43 10:53:49 28° 267° (W) 10:57:51 437.425
GONETS M04 28 Jan 10:53:04 10:59:54 26° 58° (ENE) 11:06:56
AAUSAT CUBESAT 2 28 Jan 10:55:28 10:58:05 16° 298° (WNW) 11:00:35 437.432
DELFI C3 28 Jan 10:55:28 10:59:06 32° 292° (WNW) 11:02:41 145.870
POLYITAN 1 28 Jan 10:57:19 11:01:14 33° 265° (W) 11:05:09 437.675
BUGSAT 1 28 Jan 11:00:13 11:04:03 37° 263° (W) 11:07:57 437.445
Oscar 11 28 Jan 11:00:58 11:04:38 27° 294° (WNW) 11:08:12 145.826/435.025
HO-68 28 Jan 11:04:25 11:10:17 28° 305° (NW) 11:15:59 435.675
VELOX 1 28 Jan 11:07:08 11:11:40 88° 104° (ESE) 11:16:10 145.980
SPROUT 28 Jan 11:09:55 11:11:21 12° 86° (E) 11:13:01 437.525
AIST 1 28 Jan 11:16:31 11:20:37 49° 94° (E) 11:24:46
CUBEBUG 1 28 Jan 11:18:32 11:22:54 51° 99° (E) 11:27:15 437.445
POPSAT HIP 1 28 Jan 11:18:42 11:22:02 21° 269° (W) 11:25:17 437.405
PHONESAT 2.4 28 Jan 11:19:42 11:22:41 24° 173° (S) 11:25:42 2401.200-2431.200
PCSat 28 Jan 11:20:45 11:24:23 18° 29° (NNE) 11:28:05 145.827
DUCHIFAT 1 28 Jan 11:22:07 11:25:18 20° 269° (W) 11:28:26 145.980
ANTELSAT 28 Jan 11:27:51 11:30:14 13° 274° (W) 11:32:23 437.575/2403.000
SO-50 28 Jan 11:29:31 11:34:07 72° 310° (NW) 11:38:55 436.795
Oscar 19 28 Jan 11:33:09 11:37:17 25° 62° (ENE) 11:41:31 437.125/150
UKube-1 28 Jan 11:35:56 11:39:22 22° 297° (WNW) 11:42:43 .
TIGRISAT 28 Jan 11:37:09 11:38:42 11° 276° (W) 11:39:59 435.000
CUBEBUG 2 28 Jan 11:37:17 11:40:36 19° 299° (WNW) 11:43:44 437.445
50 SAT 28 Jan 11:43:56 11:47:43 37° 291° (WNW) 11:51:27 437.505
TISAT 1 28 Jan 11:48:43 11:52:24 27° 94° (E) 11:56:07 437.305
ITAMSAT 1 28 Jan 11:48:55 11:51:32 14° 55° (NE) 11:54:22 435.822/435.867
ZACube-1 28 Jan 11:49:06 11:52:19 19° 298° (WNW) 11:55:22 437.345
AIST 2 28 Jan 11:53:04 11:57:23 74° 235° (SW) 12:01:36 435.215
DX 1 28 Jan 11:56:17 11:58:53 15° 300° (WNW) 12:01:21 434.975-435.025
CINEMA 3 28 Jan 11:58:03 11:58:35 10° 306° (NW) 11:58:52 145.822/145.860
HUMSAT D 28 Jan 11:59:14 12:02:39 23° 295° (WNW) 12:05:56 437.325/437.525
FUNcube-1 28 Jan 12:01:50 12:04:30 15° 300° (WNW) 12:06:59 145.935
BEESAT 2 28 Jan 12:02:49 12:06:26 28° 243° (WSW) 12:09:57 435.950
VERMONT LUNAR 28 Jan 12:04:25 12:07:17 24° 187° (S) 12:10:10 437.305
ESTCUBE 1 28 Jan 12:14:48 12:19:07 43° 291° (WNW) 12:23:24 437.505/2401.250
AISAT 28 Jan 12:15:36 12:19:08 22° 297° (WNW) 12:22:35 437.250
BEESAT 3 28 Jan 12:18:29 12:21:24 18° 246° (WSW) 12:24:10 437.485
Gurwin Techsat 1B 28 Jan 12:38:35 12:42:49 25° 62° (ENE) 12:47:09 435.225
SPROUT 28 Jan 12:43:45 12:48:09 81° 283° (WNW) 12:52:30 437.525
VELOX 1 28 Jan 12:45:25 12:47:39 13° 302° (WNW) 12:49:43 145.980
GONETS M04 28 Jan 12:49:17 12:58:02 84° 263° (W) 13:06:44
AIST 1 28 Jan 12:55:39 12:58:39 18° 294° (WNW) 13:01:33
CUBEBUG 1 28 Jan 12:55:40 12:58:59 20° 297° (WNW) 13:02:12 437.445
RS-15 28 Jan 12:57:32 13:08:42 65° 43° (NE) 13:20:24 29.354- 29.394
PHONESAT 2.4 28 Jan 12:57:46 13:00:42 23° 190° (S) 13:03:38 2401.200-2431.200
DANDE 28 Jan 13:01:29 13:03:04 11° 39° (NE) 13:04:55 436.750
PCSat 28 Jan 13:03:31 13:08:56 63° 52° (NE) 13:14:20 145.827
Oscar 19 28 Jan 13:11:17 13:16:22 53° 260° (W) 13:21:28 437.125/150
SO-50 28 Jan 13:12:08 13:15:33 19° 333° (NNW) 13:18:58 436.795
SWISSCUBE 28 Jan 13:23:39 13:28:14 44° 98° (E) 13:32:50 437.505
TISAT 1 28 Jan 13:24:23 13:28:18 33° 292° (WNW) 13:32:08 437.305
ITAMSAT 1 28 Jan 13:25:09 13:30:19 81° 74° (ENE) 13:35:34 435.822/435.867
HORYU 2 28 Jan 13:29:59 13:33:22 22° 63° (ENE) 13:36:50 437.375
AO-7 28 Jan 13:30:20 13:37:07 30° 51° (NE) 13:44:05 29.400- 29.500
CUSAT 1 28 Jan 13:33:49 13:38:10 18° 50° (NE) 13:42:04 437.405
BEESAT 28 Jan 13:39:34 13:44:18 58° 101° (E) 13:49:01 436.000
ITUPSAT 1 28 Jan 13:42:53 13:47:39 61° 101° (ESE) 13:52:24 437.325
VERMONT LUNAR 28 Jan 13:43:08 13:44:44 12° 203° (SSW) 13:46:17 437.305
STARS 28 Jan 14:10:42 14:13:43 18° 90° (E) 14:16:52 437.465
KKS-1 28 Jan 14:14:33 14:18:27 29° 94° (E) 14:22:23 437.445
Gurwin Techsat 1B 28 Jan 14:17:19 14:22:30 54° 260° (W) 14:27:45 435.225
SPROUT 28 Jan 14:22:12 14:23:35 11° 302° (WNW) 14:24:46 437.525
PHONESAT 2.4 28 Jan 14:37:38 14:38:33 11° 206° (SSW) 14:39:22 2401.200-2431.200
DANDE 28 Jan 14:42:13 14:49:10 45° 67° (ENE) 14:54:30 436.750
PCSat 28 Jan 14:47:41 14:51:58 24° 251° (WSW) 14:56:08 145.827
GONETS M04 28 Jan 14:47:49 14:53:42 20° 283° (WNW) 14:59:11
M-CUBED/EXP-1 PRIME 28 Jan 14:52:27 14:54:01 13° 96° (E) 14:55:43 437.505
SO-50 28 Jan 14:56:51 14:58:00 11° 357° (N) 14:59:09 436.795
SWISSCUBE 28 Jan 15:01:58 15:05:56 26° 296° (WNW) 15:09:49 437.505
HORYU 2 28 Jan 15:05:23 15:09:46 49° 261° (W) 15:14:09 437.375
ITAMSAT 1 28 Jan 15:07:33 15:10:35 15° 273° (W) 15:13:25 435.822/435.867
RS-15 28 Jan 15:10:17 15:20:55 48° 247° (WSW) 15:31:53 29.354- 29.394
CUSAT 1 28 Jan 15:15:54 15:22:44 87° 74° (ENE) 15:27:46 437.405
O/OREOS (USA 219) 28 Jan 15:16:32 15:18:12 12° 99° (E) 15:20:06 437.305
BEESAT 28 Jan 15:18:15 15:21:48 21° 299° (WNW) 15:25:15 436.000
AO-7 28 Jan 15:20:48 15:29:12 82° 252° (WSW) 15:37:39 29.400- 29.500
ITUPSAT 1 28 Jan 15:21:41 15:25:10 20° 299° (WNW) 15:28:33 437.325
AUBIESAT-1 28 Jan 15:25:18 15:28:11 28° 102° (ESE) 15:31:09 437.475
Cubesat XI-IV 28 Jan 15:27:47 15:28:06 10° 51° (NE) 15:28:41 437.490
JAS-2 28 Jan 15:28:59 15:34:13 51° 70° (ENE) 15:39:15 435.910
CUTE-I 28 Jan 15:45:26 15:48:02 14° 55° (NE) 15:50:52 437.470
STARS 28 Jan 15:46:13 15:50:36 54° 289° (WNW) 15:54:55 437.465
MOZHAYETS 4 28 Jan 15:49:01 15:51:09 13° 86° (E) 15:53:29
KKS-1 28 Jan 15:51:04 15:55:10 34° 293° (WNW) 15:59:12 437.445
DANDE 28 Jan 16:26:08 16:32:26 35° 274° (W) 16:37:17 436.750
M-CUBED/EXP-1 PRIME 28 Jan 16:26:10 16:29:21 43° 294° (WNW) 16:32:32 437.505
SO-50 28 Jan 16:37:41 16:40:34 16° 21° (NNE) 16:43:33 436.795
O/OREOS (USA 219) 28 Jan 16:52:31 16:57:01 82° 296° (WNW) 17:01:35 437.305
AUBIESAT-1 28 Jan 17:00:31 17:03:05 21° 299° (WNW) 17:05:36 437.475
CUSAT 1 28 Jan 17:00:49 17:04:27 15° 283° (WNW) 17:07:23 437.405
Cubesat XI-IV 28 Jan 17:02:00 17:07:09 54° 70° (ENE) 17:12:23 437.490
JAS-2 28 Jan 17:15:22 17:19:44 23° 268° (W) 17:23:50 435.910
AO-7 28 Jan 17:17:37 17:23:27 19° 274° (W) 17:28:55 29.400- 29.500
CUTE-I 28 Jan 17:22:02 17:27:20 77° 74° (ENE) 17:32:43 437.470
MOZHAYETS 4 28 Jan 17:24:27 17:29:02 76° 286° (WNW) 17:33:35
CUBESAT XI-V 28 Jan 17:39:04 17:41:40 15° 87° (E) 17:44:28 437.345
PRISM 28 Jan 17:58:17 18:01:49 27° 95° (E) 18:05:24 437.425
YUBILEINY 28 Jan 17:59:25 18:04:30 18° 76° (ENE) 18:10:04 435.215
HO-68 28 Jan 18:03:09 18:07:55 20° 50° (NE) 18:12:55 435.675
BRITE-PL 28 Jan 18:05:45 18:07:51 13° 53° (NE) 18:10:15 437.365/2234.400
SO-50 28 Jan 18:17:35 18:22:20 47° 44° (NE) 18:27:06 436.795
CANX-2 28 Jan 18:27:04 18:27:41 10° 58° (ENE) 18:28:32 2200.000
O/OREOS (USA 219) 28 Jan 18:34:44 18:37:16 14° 318° (NW) 18:39:41 437.305
Cubesat XI-IV 28 Jan 18:43:20 18:47:39 24° 269° (W) 18:51:53 437.490
CUTE 1.7 + AOD 2 28 Jan 18:49:14 18:51:45 16° 62° (ENE) 18:54:23 437.475
MOZHAYETS 4 28 Jan 19:04:08 19:05:34 11° 303° (WNW) 19:06:47
CUTE-I 28 Jan 19:04:42 19:08:08 17° 273° (W) 19:11:23 437.470
STRAND 1 28 Jan 19:06:30 19:11:38 66° 101° (ESE) 19:16:46 437.568
CUBESAT XI-V 28 Jan 19:15:01 19:19:43 71° 285° (WNW) 19:24:23 437.345
SEEDS 28 Jan 19:19:35 19:23:04 25° 66° (ENE) 19:26:37 437.485
CUBEBUG 2 28 Jan 19:27:58 19:29:37 12° 57° (ENE) 19:31:28 437.445
PRISM 28 Jan 19:33:40 19:37:23 32° 293° (WNW) 19:41:04 437.425
GOMX 1 28 Jan 19:38:50 19:43:45 49° 69° (ENE) 19:48:59 467.674
ZACube-1 28 Jan 19:39:14 19:39:48 10° 56° (NE) 19:40:36 437.345
BRITE-PL 28 Jan 19:40:18 19:45:21 67° 73° (ENE) 19:50:51 437.365/2234.400
DX 1 28 Jan 19:44:11 19:46:12 13° 58° (ENE) 19:48:25 434.975-435.025
CINEMA 3 28 Jan 19:45:54 19:50:00 27° 64° (ENE) 19:54:14 145.822/145.860
COMPASS 1 28 Jan 19:46:28 19:50:24 38° 70° (ENE) 19:54:21 437.405
HO-68 28 Jan 19:47:34 19:54:42 78° 70° (ENE) 20:01:53 435.675
FUNcube-1 28 Jan 19:49:51 19:51:50 13° 58° (ENE) 19:53:59 145.935
YUBILEINY 28 Jan 19:51:23 20:00:02 79° 97° (E) 20:08:48 435.215
DOVE 4 28 Jan 19:53:47 19:58:41 49° 70° (ENE) 20:03:48 437.250
SO-50 28 Jan 19:58:25 20:02:48 32° 243° (WSW) 20:07:06 436.795
CANX-2 28 Jan 19:58:40 20:02:58 77° 76° (ENE) 20:07:16 2200.000
UWE-3 28 Jan 20:07:02 20:10:33 22° 63° (ENE) 20:14:10 435.000/436.395/437.385
DELFI C3 28 Jan 20:12:08 20:15:32 26° 67° (ENE) 20:19:00 145.870
AAUSAT CUBESAT 2 28 Jan 20:12:56 20:17:06 64° 74° (ENE) 20:21:16 437.432
Oscar 11 28 Jan 20:22:33 20:26:39 42° 70° (ENE) 20:30:47 145.826/435.025
CUTE 1.7 + AOD 2 28 Jan 20:22:59 20:27:15 66° 259° (W) 20:31:32 437.475
VELOX 1 28 Jan 20:33:49 20:36:30 16° 60° (ENE) 20:39:21 145.980
STRAND 1 28 Jan 20:46:36 20:50:25 21° 300° (WNW) 20:54:08 437.568
SEEDS 28 Jan 20:54:50 20:58:48 36° 264° (W) 21:02:44 437.485
CUBESAT XI-V 28 Jan 20:55:05 20:56:24 11° 304° (NW) 20:57:30 437.345
UKube-1 28 Jan 20:57:26 21:01:42 60° 72° (ENE) 21:06:01 .
50 SAT 28 Jan 21:00:10 21:03:26 23° 65° (ENE) 21:06:46 437.505
CUBEBUG 2 28 Jan 21:00:48 21:05:34 74° 74° (ENE) 21:10:22 437.445
ZACube-1 28 Jan 21:10:49 21:15:24 67° 74° (ENE) 21:20:01 437.345
DX 1 28 Jan 21:17:33 21:21:54 84° 256° (WSW) 21:26:19 434.975-435.025
GOMX 1 28 Jan 21:17:50 21:22:10 27° 270° (W) 21:26:38 467.674
HUMSAT D 28 Jan 21:18:10 21:22:19 45° 71° (ENE) 21:26:30 437.325/437.525
AIST 1 28 Jan 21:20:44 21:23:49 19° 66° (ENE) 21:27:00
BRITE-PL 28 Jan 21:20:46 21:24:31 19° 274° (W) 21:28:17 437.365/2234.400
CINEMA 3 28 Jan 21:22:12 21:26:59 47° 263° (W) 21:31:52 145.822/145.860
COMPASS 1 28 Jan 21:22:53 21:26:18 23° 268° (W) 21:29:37 437.405
FUNcube-1 28 Jan 21:22:55 21:27:33 86° 76° (ENE) 21:32:11 145.935
ISS 28 Jan 21:31:30 21:33:08 13° 136° (SE) 21:34:52 145.825
DOVE 4 28 Jan 21:32:28 21:36:44 26° 270° (W) 21:41:04 437.250
HO-68 28 Jan 21:37:43 21:43:17 23° 271° (W) 21:48:39 435.675
CANX-2 28 Jan 21:37:47 21:39:33 12° 274° (W) 21:41:06 2200.000
ANTELSAT 28 Jan 21:38:50 21:40:54 13° 86° (E) 21:43:09 437.575/2403.000
AISAT 28 Jan 21:39:39 21:44:04 65° 73° (ENE) 21:48:32 437.250
ESTCUBE 1 28 Jan 21:41:29 21:45:26 32° 67° (ENE) 21:49:27 437.505/2401.250
UWE-3 28 Jan 21:42:11 21:46:47 53° 261° (W) 21:51:25 435.000/436.395/437.385
TIGRISAT 28 Jan 21:46:28 21:49:04 16° 88° (E) 21:51:48 435.000
DELFI C3 28 Jan 21:47:02 21:50:43 31° 265° (W) 21:54:23 145.870
YUBILEINY 28 Jan 21:50:46 21:58:01 27° 301° (WNW) 22:05:06 435.215
AAUSAT CUBESAT 2 28 Jan 21:50:57 21:53:16 14° 273° (W) 21:55:25 437.432
Oscar 11 28 Jan 21:59:37 22:03:03 22° 268° (W) 22:06:25 145.826/435.025
NANOSAT C BR1 28 Jan 22:02:43 22:04:51 14° 87° (E) 22:07:09 145.865
SPROUT 28 Jan 22:07:22 22:09:51 16° 61° (ENE) 22:12:28 437.525
VELOX 1 28 Jan 22:08:12 22:12:38 68° 258° (WSW) 22:17:06 145.980
QB50P2 28 Jan 22:16:03 22:19:07 19° 90° (E) 22:22:16 145.880/145.840
CUBEBUG 1 28 Jan 22:18:03 22:22:21 65° 73° (ENE) 22:26:43 437.445
QB50P1 28 Jan 22:25:17 22:28:43 23° 92° (E) 22:32:13 145.935-145.965
50 SAT 28 Jan 22:34:30 22:38:24 38° 263° (W) 22:42:17 437.505
UKube-1 28 Jan 22:35:35 22:38:20 16° 271° (W) 22:40:54 .
UNISAT 6 28 Jan 22:37:55 22:42:18 50° 99° (E) 22:46:35 437.425
BUGSAT 1 28 Jan 22:39:21 22:42:53 25° 93° (E) 22:46:29 437.445
POLYITAN 1 28 Jan 22:39:28 22:43:22 32° 96° (E) 22:47:16 437.675
CUBEBUG 2 28 Jan 22:40:03 22:42:53 15° 274° (W) 22:45:33 437.445
TISAT 1 28 Jan 22:44:31 22:48:18 32° 67° (ENE) 22:52:09 437.305
ZACube-1 28 Jan 22:49:26 22:52:19 16° 273° (W) 22:55:02 437.345
HUMSAT D 28 Jan 22:55:02 22:58:23 21° 269° (W) 23:01:37 437.325/437.525
AIST 1 28 Jan 22:57:37 23:01:49 48° 266° (W) 23:06:01
POPSAT HIP 1 28 Jan 22:59:33 23:03:46 50° 99° (E) 23:07:59 437.405
SWISSCUBE 28 Jan 22:59:34 23:01:12 12° 56° (NE) 23:03:01 437.505
DUCHIFAT 1 28 Jan 23:02:28 23:06:42 53° 100° (E) 23:10:55 145.980
FUNcube-1 28 Jan 23:02:42 23:04:38 12° 275° (W) 23:06:20 145.935
ISS 28 Jan 23:05:55 23:09:11 71° 153° (SSE) 23:12:29 145.825
ANTELSAT 28 Jan 23:13:51 23:18:22 73° 286° (WNW) 23:22:44 437.575/2403.000
BEESAT 28 Jan 23:14:23 23:16:56 15° 58° (ENE) 23:19:40 436.000
ITUPSAT 1 28 Jan 23:17:49 23:20:32 16° 58° (ENE) 23:23:25 437.325
ESTCUBE 1 28 Jan 23:18:19 23:22:20 31° 265° (W) 23:26:19 437.505/2401.250
AISAT 28 Jan 23:18:33 23:21:13 15° 272° (W) 23:23:46 437.250
TIGRISAT 28 Jan 23:21:54 23:26:22 62° 287° (WNW) 23:30:42 435.000
NANOSAT C BR1 28 Jan 23:36:58 23:41:16 68° 287° (WNW) 23:45:32 145.865
SPROUT 28 Jan 23:41:11 23:45:29 69° 258° (WSW) 23:49:50 437.525
QB50P2 28 Jan 23:51:10 23:55:21 48° 289° (WNW) 23:59:29 145.880/145.840
CUBEBUG 1 28 Jan 23:56:46 23:59:17 14° 272° (W) 00:01:37 437.445
GONETS M04 29 Jan 00:00:21 00:06:43 24° 79° (E) 00:13:22
QB50P1 29 Jan 00:00:44 00:04:48 39° 291° (WNW) 00:08:48 145.935-145.965
BUGSAT 1 29 Jan 00:14:33 00:18:30 36° 291° (WNW) 00:22:25 437.445
UNISAT 6 29 Jan 00:15:25 00:18:48 21° 297° (WNW) 00:22:02 437.425
POLYITAN 1 29 Jan 00:15:30 00:19:16 29° 294° (WNW) 00:22:58 437.675
TISAT 1 29 Jan 00:20:29 00:24:10 28° 266° (W) 00:27:50 437.305
SWISSCUBE 29 Jan 00:33:35 00:38:20 75° 73° (ENE) 00:43:07 437.505
POPSAT HIP 1 29 Jan 00:36:12 00:39:23 20° 297° (WNW) 00:42:27 437.405
DUCHIFAT 1 29 Jan 00:39:09 00:42:14 19° 297° (WNW) 00:45:11 145.980
ISS 29 Jan 00:42:41 00:45:51 43° 352° (N) 00:49:03 145.825
BEESAT 29 Jan 00:49:27 00:54:13 85° 256° (WSW) 00:59:02 436.000
ITUPSAT 1 29 Jan 00:53:07 00:57:54 81° 257° (WSW) 01:02:42 437.325
ANTELSAT 29 Jan 00:53:27 00:54:24 10° 304° (NW) 00:55:07 437.575/2403.000
STARS 29 Jan 01:10:59 01:14:37 25° 65° (ENE) 01:18:20 437.465
KKS-1 29 Jan 01:15:58 01:20:09 40° 69° (ENE) 01:24:23 437.445
Oscar 19 29 Jan 01:19:22 01:24:15 42° 97° (E) 01:29:08 437.125/150
O/OREOS (USA 219) 29 Jan 01:19:58 01:24:22 44° 57° (ENE) 01:28:48 437.305
ITAMSAT 1 29 Jan 01:35:13 01:39:14 23° 91° (E) 01:43:21 435.822/435.867
M-CUBED/EXP-1 PRIME 29 Jan 01:43:45 01:47:27 39° 65° (ENE) 01:50:54 437.505
GONETS M04 29 Jan 01:53:51 02:02:39 83° 281° (W) 02:11:26
AIST 2 29 Jan 01:58:09 01:58:41 10° 109° (ESE) 01:59:26 435.215
BEESAT 2 29 Jan 02:00:47 02:04:06 24° 116° (ESE) 02:07:33 435.950
SWISSCUBE 29 Jan 02:14:07 02:16:51 15° 273° (W) 02:19:22 437.505
BEESAT 3 29 Jan 02:14:38 02:18:24 36° 119° (ESE) 02:22:16 437.485
AUBIESAT-1 29 Jan 02:16:56 02:20:53 83° 71° (ENE) 02:24:32 437.475
DANDE 29 Jan 02:18:33 02:21:02 12° 74° (ENE) 02:24:10 436.750
ISS 29 Jan 02:19:30 02:22:45 49° 12° (NNE) 02:25:59 145.825
Gurwin Techsat 1B 29 Jan 02:29:55 02:35:02 47° 98° (E) 02:40:10 435.225
BEESAT 29 Jan 02:31:30 02:32:56 11° 275° (W) 02:34:06 436.000
ITUPSAT 1 29 Jan 02:35:55 02:36:43 10° 276° (W) 02:37:13 437.325
CUSAT 1 29 Jan 02:45:08 02:50:54 22° 81° (E) 02:56:58 437.405
STARS 29 Jan 02:46:45 02:50:58 40° 263° (W) 02:55:10 437.465
KKS-1 29 Jan 02:53:14 02:56:59 25° 267° (W) 03:00:40 437.445
HORYU 2 29 Jan 02:53:50 02:57:29 25° 93° (E) 03:01:09 437.375
MOZHAYETS 4 29 Jan 02:54:06 02:57:23 20° 63° (ENE) 03:00:46
Oscar 19 29 Jan 02:59:00 03:03:31 30° 296° (WNW) 03:07:54 437.125/150
O/OREOS (USA 219) 29 Jan 02:59:52 03:03:35 24° 256° (WSW) 03:07:15 437.305
ITAMSAT 1 29 Jan 03:14:00 03:19:09 56° 290° (WNW) 03:24:15 435.822/435.867
AO-7 29 Jan 03:19:12 03:25:59 28° 91° (E) 03:32:57 29.400- 29.500
M-CUBED/EXP-1 PRIME 29 Jan 03:19:38 03:22:35 19° 260° (W) 03:25:19 437.505
RS-15 29 Jan 03:29:10 03:36:39 23° 102° (ESE) 03:44:40 29.354- 29.394
AIST 2 29 Jan 03:32:22 03:36:38 80° 126° (SE) 03:40:58 435.215
BEESAT 2 29 Jan 03:38:07 03:42:08 45° 314° (NW) 03:46:12 435.950
PCSat 29 Jan 03:49:21 03:53:49 28° 111° (ESE) 03:58:25 145.827
BEESAT 3 29 Jan 03:52:50 03:56:36 32° 319° (NW) 04:00:24 437.485
GONETS M04 29 Jan 03:54:35 04:01:08 22° 305° (NW) 04:07:23
DANDE 29 Jan 03:54:57 04:02:53 52° 92° (E) 04:11:09 436.750
ISS 29 Jan 03:56:04 03:59:18 50° 211° (SSW) 04:02:31 145.825
YUBILEINY 29 Jan 04:03:09 04:05:53 12° 42° (NE) 04:09:09 435.215
Gurwin Techsat 1B 29 Jan 04:10:17 04:14:51 29° 297° (WNW) 04:19:19 435.225
JAS-2 29 Jan 04:17:47 04:22:49 34° 96° (E) 04:28:27 435.910
CUSAT 1 29 Jan 04:24:42 04:33:01 83° 100° (E) 04:41:23 437.405
MOZHAYETS 4 29 Jan 04:29:47 04:34:18 55° 260° (W) 04:38:49
HORYU 2 29 Jan 04:30:09 04:34:19 39° 292° (WNW) 04:38:26 437.375
CUBESAT XI-V 29 Jan 04:45:46 04:49:16 22° 63° (ENE) 04:52:51 437.345
STRAND 1 29 Jan 04:48:29 04:52:12 21° 60° (ENE) 04:56:04 437.568
PRISM 29 Jan 04:52:12 04:55:51 32° 68° (ENE) 04:59:34 437.425
ITAMSAT 1 29 Jan 04:56:49 04:57:40 10° 309° (NW) 04:58:16 435.822/435.867
AO-7 29 Jan 05:11:20 05:19:42 76° 292° (WNW) 05:27:58 29.400- 29.500
AIST 2 29 Jan 05:12:29 05:15:47 21° 327° (NNW) 05:19:04 435.215
Cubesat XI-IV 29 Jan 05:16:57 05:20:11 16° 87° (E) 05:23:37 437.490
BEESAT 2 29 Jan 05:19:28 05:21:24 13° 336° (NNW) 05:23:16 435.950
PCSat 29 Jan 05:31:39 05:36:58 55° 310° (NW) 05:42:21 145.827
BEESAT 3 29 Jan 05:35:11 05:36:01 10° 341° (NNW) 05:36:46 437.485
CUTE-I 29 Jan 05:36:19 05:40:32 24° 91° (E) 05:44:52 437.470
RS-15 29 Jan 05:36:34 05:47:28 82° 124° (SE) 05:58:33 29.354- 29.394
DANDE 29 Jan 05:38:25 05:46:33 47° 292° (WNW) 05:54:43 436.750
YUBILEINY 29 Jan 05:57:19 06:05:42 48° 70° (ENE) 06:14:11 435.215
JAS-2 29 Jan 06:02:52 06:08:05 42° 292° (WNW) 06:13:47 435.910
CUSAT 1 29 Jan 06:09:51 06:17:02 29° 300° (WNW) 06:23:53 437.405
CUBESAT XI-V 29 Jan 06:21:59 06:26:27 49° 262° (W) 06:30:57 437.345
STRAND 1 29 Jan 06:25:58 06:31:01 63° 258° (WSW) 06:36:07 437.568
PRISM 29 Jan 06:27:57 06:31:27 26° 266° (W) 06:34:54 437.425
Cubesat XI-IV 29 Jan 06:55:37 07:01:01 79° 287° (WNW) 07:06:24 437.490
AO-7 29 Jan 07:05:12 07:11:21 23° 314° (NW) 07:17:14 29.400- 29.500
HO-68 29 Jan 07:15:11 07:16:39 11° 80° (E) 07:18:40 435.675
CUTE-I 29 Jan 07:15:44 07:21:01 56° 290° (WNW) 07:26:15 437.470
PCSat 29 Jan 07:18:13 07:21:40 16° 333° (NNW) 07:25:03 145.827
DANDE 29 Jan 07:28:08 07:32:26 14° 315° (NW) 07:36:17 436.750
GOMX 1 29 Jan 07:39:25 07:41:45 13° 82° (E) 07:44:19 467.674
BRITE-PL 29 Jan 07:42:39 07:46:45 21° 87° (E) 07:50:55 437.365/2234.400
CANX-2 29 Jan 07:43:33 07:44:19 11° 85° (E) 07:45:20 2200.000
RS-15 29 Jan 07:50:45 08:01:03 43° 333° (NNW) 08:11:33 29.354- 29.394
DOVE 4 29 Jan 07:52:16 07:53:54 12° 82° (E) 07:55:48 437.250
YUBILEINY 29 Jan 07:54:22 08:02:35 45° 272° (W) 08:10:43 435.215
CUTE 1.7 + AOD 2 29 Jan 08:06:05 08:08:49 17° 89° (E) 08:11:41 437.475
UNISAT 6 29 Jan 08:07:30 08:08:29 11° 56° (NE) 08:09:43 437.425
SEEDS 29 Jan 08:36:04 08:39:44 29° 94° (E) 08:43:25 437.485
Cubesat XI-IV 29 Jan 08:37:25 08:40:22 15° 305° (NW) 08:43:08 437.490
BEESAT 2 29 Jan 08:39:40 08:41:37 13° 24° (NNE) 08:43:39 435.950
ANTELSAT 29 Jan 08:40:41 08:44:08 21° 63° (ENE) 08:47:40 437.575/2403.000
TIGRISAT 29 Jan 08:48:08 08:51:48 24° 64° (ENE) 08:55:34 435.000
CUBEBUG 2 29 Jan 08:50:58 08:52:55 13° 85° (E) 08:55:03 437.445
BEESAT 3 29 Jan 08:53:28 08:56:01 16° 29° (NNE) 08:58:39 437.485
NANOSAT C BR1 29 Jan 08:58:52 09:01:40 18° 62° (ENE) 09:04:34 145.865
CUTE-I 29 Jan 08:58:56 09:00:05 11° 309° (NW) 09:00:58 437.470
HO-68 29 Jan 08:59:04 09:06:08 60° 102° (ESE) 09:13:13 435.675
ZACube-1 29 Jan 08:59:39 09:00:07 10° 83° (E) 09:00:52 437.345
COMPASS 1 29 Jan 09:02:21 09:06:23 45° 98° (E) 09:10:24 437.405
DX 1 29 Jan 09:04:15 09:06:20 13° 87° (E) 09:08:38 434.975-435.025
PHONESAT 2.4 29 Jan 09:07:43 09:09:01 12° 156° (SSE) 09:10:23 2401.200-2431.200
FUNcube-1 29 Jan 09:10:10 09:12:17 13° 86° (E) 09:14:33 145.935
QB50P2 29 Jan 09:12:31 09:15:53 24° 65° (ENE) 09:19:23 145.880/145.840
CINEMA 3 29 Jan 09:14:13 09:18:44 36° 95° (E) 09:23:05 145.822/145.860
GOMX 1 29 Jan 09:15:20 09:20:52 83° 102° (ESE) 09:26:08 467.674
CANX-2 29 Jan 09:16:43 09:20:59 84° 285° (WNW) 09:25:12 2200.000
BRITE-PL 29 Jan 09:20:09 09:25:52 69° 287° (WNW) 09:31:21 437.365/2234.400
QB50P1 29 Jan 09:21:32 09:25:10 28° 66° (ENE) 09:28:52 145.935-145.965
DELFI C3 29 Jan 09:23:49 09:27:18 27° 94° (E) 09:30:48 145.870
DOVE 4 29 Jan 09:27:24 09:32:42 80° 103° (ESE) 09:37:44 437.250
AAUSAT CUBESAT 2 29 Jan 09:28:33 09:32:44 77° 102° (ESE) 09:36:53 437.432
UWE-3 29 Jan 09:29:36 09:33:20 25° 92° (E) 09:37:04 435.000/436.395/437.385
BUGSAT 1 29 Jan 09:33:04 09:36:33 27° 66° (ENE) 09:40:09 437.445
